"Period start","avg(HW err(1)/warn(2) (#))","avg(Visibility (m))","avg(Weather code (#))","avg(Precip intensity (mm/h))","min(HW err(1)/warn(2) (#))","max(HW err(1)/warn(2) (#))","std(HW err(1)/warn(2) (#))","med(HW err(1)/warn(2) (#))","min(Visibility (m))","max(Visibility (m))","std(Visibility (m))","med(Visibility (m))","min(Weather code (#))","max(Weather code (#))","std(Weather code (#))","med(Weather code (#))","min(Precip intensity (mm/h))","max(Precip intensity (mm/h))","std(Precip intensity (mm/h))","med(Precip intensity (mm/h))"
2014-08-11 00:00:00,0,44839,0,0.00,0,0,0,0,30671,50000,6435,47589,0,0,0,0,0.00,0.00,0.00,0.00
2014-08-11 00:10:00,0,47405,0,0.00,0,0,0,0,43714,50000,2643,48399,0,0,0,0,0.00,0.00,0.00,0.00
2014-08-11 00:20:00,0,46703,0,0.00,0,0,0,0,41441,50000,3375,47519,0,0,0,0,0.00,0.00,0.00,0.00
2014-08-11 00:30:00,0,48321,0,0.00,0,0,0,0,45112,50000,1615,48766,0,0,0,0,0.00,0.00,0.00,0.00
2014-08-11 00:40:00,0,45411,0,0.00,0,0,0,0,38108,50000,3373,45740,0,0,0,0,0.00,0.00,0.00,0.00
2014-08-11 00:50:00,0,39890,0,0.00,0,0,0,0,33287,44856,3338,39824,0,0,0,0,0.00,0.00,0.00,0.00
2014-08-11 01:00:00,0,47175,0,0.00,0,0,0,0,44011,50000,2048,46370,0,0,0,0,0.00,0.00,0.00,0.00
2014-08-11 01:10:00,0,47754,0,0.00,0,0,0,0,41423,50000,2516,48419,0,0,0,0,0.00,0.00,0.00,0.00
2014-08-11 01:20:00,0,45518,0,0.00,0,0,0,0,39949,50000,3417,44865,0,0,0,0,0.00,0.00,0.00,0.00
2014-08-11 01:30:00,0,46700,0,0.00,0,0,0,0,39486,50000,3806,48311,0,0,0,0,0.00,0.00,0.00,0.00
2014-08-11 01:40:00,0,46584,0,0.00,0,0,0,0,34665,50000,4608,48188,0,0,0,0,0.00,0.00,0.00,0.00
2014-08-11 01:50:00,0,47628,0,0.00,0,0,0,0,39343,50000,3775,50000,0,0,0,0,0.00,0.00,0.00,0.00
2014-08-11 02:00:00,0,46666,0,0.00,0,0,0,0,39362,50000,3101,46949,0,0,0,0,0.00,0.00,0.00,0.00
2014-08-11 02:10:00,0,48297,0,0.00,0,0,0,0,43409,50000,2270,49964,0,0,0,0,0.00,0.00,0.00,0.00
2014-08-11 02:20:00,0,37915,0,0.00,0,0,0,0,28600,50000,8732,34507,0,0,0,0,0.00,0.00,0.00,0.00
2014-08-11 02:30:00,0,39559,0,0.00,0,0,0,0,27886,49872,5704,39548,0,0,0,0,0.00,0.00,0.00,0.00
2014-08-11 02:40:00,0,39912,0,0.00,0,0,0,0,29622,50000,5864,38244,0,0,0,0,0.00,0.00,0.00,0.00
2014-08-11 02:50:00,0,44180,0,0.00,0,0,0,0,31833,50000,5908,45303,0,0,0,0,0.00,0.00,0.00,0.00
2014-08-11 03:00:00,0,44095,0,0.00,0,0,0,0,38621,49572,3539,43450,0,0,0,0,0.00,0.00,0.00,0.00
2014-08-11 03:10:00,0,47729,0,0.00,0,0,0,0,42290,50000,2988,49351,0,0,0,0,0.00,0.00,0.00,0.00
2014-08-11 03:20:00,0,46239,0,0.00,0,0,0,0,38080,50000,4040,47405,0,0,0,0,0.00,0.00,0.00,0.00
2014-08-11 03:30:00,0,46609,0,0.00,0,0,0,0,38296,50000,4342,50000,0,0,0,0,0.00,0.00,0.00,0.00
2014-08-11 03:40:00,0,46509,0,0.00,0,0,0,0,37037,50000,4013,47196,0,0,0,0,0.00,0.00,0.00,0.00
2014-08-11 03:50:00,0,46506,0,0.00,0,0,0,0,35190,50000,4576,48744,0,0,0,0,0.00,0.00,0.00,0.00
2014-08-11 04:00:00,0,48854,0,0.00,0,0,0,0,45372,50000,1549,49850,0,0,0,0,0.00,0.00,0.00,0.00
2014-08-11 04:10:00,0,41729,0,0.00,0,0,0,0,32200,50000,5590,40210,0,0,0,0,0.00,0.00,0.00,0.00
2014-08-11 04:20:00,0,46864,0,0.00,0,0,0,0,38431,50000,4549,49721,0,0,0,0,0.00,0.00,0.00,0.00
2014-08-11 04:30:00,0,45930,0,0.00,0,0,0,0,38354,50000,4085,46489,0,0,0,0,0.00,0.00,0.00,0.00
2014-08-11 04:40:00,0,43757,0,0.00,0,0,0,0,33730,50000,4994,43770,0,0,0,0,0.00,0.00,0.00,0.00
2014-08-11 04:50:00,0,46775,0,0.00,0,0,0,0,37431,50000,4391,48944,0,0,0,0,0.00,0.00,0.00,0.00
2014-08-11 05:00:00,0,48559,0,0.00,0,0,0,0,45140,50000,1613,49066,0,0,0,0,0.00,0.00,0.00,0.00
2014-08-11 05:10:00,0,44776,0,0.00,0,0,0,0,35232,50000,5415,46403,0,0,0,0,0.00,0.00,0.00,0.00
2014-08-11 05:20:00,0,49029,0,0.00,0,0,0,0,44374,50000,1721,50000,0,0,0,0,0.00,0.00,0.00,0.00
2014-08-11 05:30:00,0,49223,0,0.00,0,0,0,0,47218,50000,954,49574,0,0,0,0,0.00,0.00,0.00,0.00
2014-08-11 05:40:00,0,46937,0,0.00,0,0,0,0,41446,50000,3388,48814,0,0,0,0,0.00,0.00,0.00,0.00
2014-08-11 05:50:00,0,48834,0,0.00,0,0,0,0,44338,50000,1833,49932,0,0,0,0,0.00,0.00,0.00,0.00
2014-08-11 06:00:00,0,45395,0,0.00,0,0,0,0,36961,50000,3656,45124,0,0,0,0,0.00,0.00,0.00,0.00
2014-08-11 06:10:00,0,48508,0,0.00,0,0,0,0,42349,50000,2620,50000,0,0,0,0,0.00,0.00,0.00,0.00
2014-08-11 06:20:00,0,46286,0,0.00,0,0,0,0,32577,50000,5767,49714,0,0,0,0,0.00,0.00,0.00,0.00
2014-08-11 06:30:00,0,49618,0,0.00,0,0,0,0,46714,50000,981,50000,0,0,0,0,0.00,0.00,0.00,0.00
2014-08-11 06:40:00,0,49374,0,0.00,0,0,0,0,47075,50000,944,50000,0,0,0,0,0.00,0.00,0.00,0.00
2014-08-11 06:50:00,0,48673,0,0.00,0,0,0,0,43860,50000,2123,50000,0,0,0,0,0.00,0.00,0.00,0.00
2014-08-11 07:00:00,0,49355,0,0.00,0,0,0,0,44687,50000,1569,50000,0,0,0,0,0.00,0.00,0.00,0.00
2014-08-11 07:10:00,0,48070,0,0.00,0,0,0,0,39660,50000,3328,49904,0,0,0,0,0.00,0.00,0.00,0.00
2014-08-11 07:20:00,0,49561,0,0.00,0,0,0,0,46535,50000,1046,50000,0,0,0,0,0.00,0.00,0.00,0.00
2014-08-11 07:30:00,0,49975,0,0.00,0,0,0,0,49750,50000,75,50000,0,0,0,0,0.00,0.00,0.00,0.00
2014-08-11 07:40:00,0,48660,0,0.00,0,0,0,0,45285,50000,1776,49950,0,0,0,0,0.00,0.00,0.00,0.00
2014-08-11 07:50:00,0,48700,0,0.00,0,0,0,0,46171,50000,1341,48906,0,0,0,0,0.00,0.00,0.00,0.00
2014-08-11 08:00:00,0,46122,0,0.00,0,0,0,0,37365,50000,4769,49659,0,0,0,0,0.00,0.00,0.00,0.00
2014-08-11 08:10:00,0,48736,0,0.00,0,0,0,0,43777,50000,2457,50000,0,0,0,0,0.00,0.00,0.00,0.00
2014-08-11 08:20:00,0,49999,0,0.00,0,0,0,0,49987,50000,4,50000,0,0,0,0,0.00,0.00,0.00,0.00
2014-08-11 08:30:00,0,47628,0,0.00,0,0,0,0,38983,50000,3426,49042,0,0,0,0,0.00,0.00,0.00,0.00
2014-08-11 08:40:00,0,47716,0,0.00,0,0,0,0,37237,50000,3802,49345,0,0,0,0,0.00,0.00,0.00,0.00
2014-08-11 08:50:00,0,49823,0,0.00,0,0,0,0,48229,50000,531,50000,0,0,0,0,0.00,0.00,0.00,0.00
2014-08-11 09:00:00,0,49897,0,0.00,0,0,0,0,49378,50000,211,50000,0,0,0,0,0.00,0.00,0.00,0.00
2014-08-11 09:10:00,0,49815,0,0.00,0,0,0,0,48149,50000,555,50000,0,0,0,0,0.00,0.00,0.00,0.00
2014-08-11 09:20:00,0,49772,0,0.00,0,0,0,0,47715,50000,686,50000,0,0,0,0,0.00,0.00,0.00,0.00
2014-08-11 09:30:00,0,49817,0,0.00,0,0,0,0,48209,50000,536,50000,0,0,0,0,0.00,0.00,0.00,0.00
2014-08-11 09:40:00,0,49509,0,0.00,0,0,0,0,47255,50000,990,50000,0,0,0,0,0.00,0.00,0.00,0.00
2014-08-11 09:50:00,0,50000,0,0.00,0,0,0,0,50000,50000,0,50000,0,0,0,0,0.00,0.00,0.00,0.00
2014-08-11 10:00:00,0,49979,0,0.00,0,0,0,0,49794,50000,62,50000,0,0,0,0,0.00,0.00,0.00,0.00
2014-08-11 10:10:00,0,50000,0,0.00,0,0,0,0,50000,50000,0,50000,0,0,0,0,0.00,0.00,0.00,0.00
2014-08-11 10:20:00,0,49744,0,0.00,0,0,0,0,48656,50000,513,50000,0,0,0,0,0.00,0.00,0.00,0.00
2014-08-11 10:30:00,0,49370,0,0.00,0,0,0,0,45328,50000,1432,50000,0,0,0,0,0.00,0.00,0.00,0.00
2014-08-11 10:40:00,0,49182,0,0.00,0,0,0,0,42595,50000,2206,50000,0,0,0,0,0.00,0.00,0.00,0.00
2014-08-11 10:50:00,0,49251,0,0.00,0,0,0,0,45923,50000,1417,50000,0,0,0,0,0.00,0.00,0.00,0.00
2014-08-11 11:00:00,0,49826,0,0.00,0,0,0,0,48255,50000,524,50000,0,0,0,0,0.00,0.00,0.00,0.00
2014-08-11 11:10:00,0,49244,0,0.00,0,0,0,0,46816,50000,1048,49806,0,0,0,0,0.00,0.00,0.00,0.00
2014-08-11 11:20:00,0,49577,0,0.00,0,0,0,0,47149,50000,908,50000,0,0,0,0,0.00,0.00,0.00,0.00
2014-08-11 11:30:00,0,49342,0,0.00,0,0,0,0,45838,50000,1265,50000,0,0,0,0,0.00,0.00,0.00,0.00
2014-08-11 11:40:00,0,50000,0,0.00,0,0,0,0,50000,50000,0,50000,0,0,0,0,0.00,0.00,0.00,0.00
2014-08-11 11:50:00,0,50000,0,0.00,0,0,0,0,50000,50000,0,50000,0,0,0,0,0.00,0.00,0.00,0.00
2014-08-11 12:00:00,0,50000,0,0.00,0,0,0,0,50000,50000,0,50000,0,0,0,0,0.00,0.00,0.00,0.00
2014-08-11 12:10:00,0,50000,0,0.00,0,0,0,0,50000,50000,0,50000,0,0,0,0,0.00,0.00,0.00,0.00
2014-08-11 12:20:00,0,49957,0,0.00,0,0,0,0,49570,50000,129,50000,0,0,0,0,0.00,0.00,0.00,0.00
2014-08-11 12:30:00,0,50000,0,0.00,0,0,0,0,50000,50000,0,50000,0,0,0,0,0.00,0.00,0.00,0.00
2014-08-11 12:40:00,0,50000,0,0.00,0,0,0,0,50000,50000,0,50000,0,0,0,0,0.00,0.00,0.00,0.00
2014-08-11 12:50:00,0,49414,0,0.00,0,0,0,0,45553,50000,1354,50000,0,0,0,0,0.00,0.00,0.00,0.00
2014-08-11 13:00:00,0,50000,0,0.00,0,0,0,0,50000,50000,0,50000,0,0,0,0,0.00,0.00,0.00,0.00
2014-08-11 13:10:00,0,50000,0,0.00,0,0,0,0,50000,50000,0,50000,0,0,0,0,0.00,0.00,0.00,0.00
2014-08-11 13:20:00,0,50000,0,0.00,0,0,0,0,50000,50000,0,50000,0,0,0,0,0.00,0.00,0.00,0.00
2014-08-11 13:30:00,0,49736,0,0.00,0,0,0,0,47356,50000,793,50000,0,0,0,0,0.00,0.00,0.00,0.00
2014-08-11 13:40:00,0,49754,0,0.00,0,0,0,0,47537,50000,739,50000,0,0,0,0,0.00,0.00,0.00,0.00
2014-08-11 13:50:00,0,49968,0,0.00,0,0,0,0,49677,50000,97,50000,0,0,0,0,0.00,0.00,0.00,0.00
2014-08-11 14:00:00,0,49940,0,0.00,0,0,0,0,49398,50000,181,50000,0,0,0,0,0.00,0.00,0.00,0.00
2014-08-11 14:10:00,0,49934,0,0.00,0,0,0,0,49336,50000,199,50000,0,0,0,0,0.00,0.00,0.00,0.00
2014-08-11 14:20:00,0,49865,0,0.00,0,0,0,0,48654,50000,404,50000,0,0,0,0,0.00,0.00,0.00,0.00
2014-08-11 14:30:00,0,44265,0,0.00,0,0,0,0,13067,50000,11887,50000,0,0,0,0,0.00,0.00,0.00,0.00
2014-08-11 14:40:00,0,49183,0,0.00,0,0,0,0,42201,50000,2330,50000,0,0,0,0,0.00,0.00,0.00,0.00
2014-08-11 14:50:00,0,49928,0,0.00,0,0,0,0,49281,50000,216,50000,0,0,0,0,0.00,0.00,0.00,0.00
2014-08-11 15:00:00,0,49747,0,0.00,0,0,0,0,47893,50000,631,50000,0,0,0,0,0.00,0.00,0.00,0.00
2014-08-11 15:10:00,0,49892,0,0.00,0,0,0,0,48925,50000,322,50000,0,0,0,0,0.00,0.00,0.00,0.00
2014-08-11 15:20:00,0,49832,0,0.00,0,0,0,0,48800,50000,365,50000,0,0,0,0,0.00,0.00,0.00,0.00
2014-08-11 15:30:00,0,48690,0,0.00,0,0,0,0,43639,50000,1910,49641,0,0,0,0,0.00,0.00,0.00,0.00
2014-08-11 15:40:00,0,49890,0,0.00,0,0,0,0,48897,50000,331,50000,0,0,0,0,0.00,0.00,0.00,0.00
2014-08-11 15:50:00,0,47873,0,0.00,0,0,0,0,42676,50000,2454,48790,0,0,0,0,0.00,0.00,0.00,0.00
2014-08-11 16:00:00,0,49623,0,0.00,0,0,0,0,47439,50000,797,50000,0,0,0,0,0.00,0.00,0.00,0.00
2014-08-11 16:10:00,0,49953,0,0.00,0,0,0,0,49529,50000,141,50000,0,0,0,0,0.00,0.00,0.00,0.00
2014-08-11 16:20:00,0,50000,0,0.00,0,0,0,0,50000,50000,0,50000,0,0,0,0,0.00,0.00,0.00,0.00
2014-08-11 16:30:00,0,49959,0,0.00,0,0,0,0,49593,50000,122,50000,0,0,0,0,0.00,0.00,0.00,0.00
2014-08-11 16:40:00,0,50000,0,0.00,0,0,0,0,50000,50000,0,50000,0,0,0,0,0.00,0.00,0.00,0.00
2014-08-11 16:50:00,0,50000,0,0.00,0,0,0,0,50000,50000,0,50000,0,0,0,0,0.00,0.00,0.00,0.00
2014-08-11 17:00:00,0,49808,0,0.00,0,0,0,0,48576,50000,436,50000,0,0,0,0,0.00,0.00,0.00,0.00
2014-08-11 17:10:00,0,50000,0,0.00,0,0,0,0,50000,50000,0,50000,0,0,0,0,0.00,0.00,0.00,0.00
2014-08-11 17:20:00,0,49926,0,0.00,0,0,0,0,49255,50000,224,50000,0,0,0,0,0.00,0.00,0.00,0.00
2014-08-11 17:30:00,0,47500,0,0.00,0,0,0,0,38290,50000,4028,50000,0,0,0,0,0.00,0.00,0.00,0.00
2014-08-11 17:40:00,0,47906,49,0.12,0,0,0,0,42474,50000,2531,48720,0,61,17,51,0.00,0.25,0.10,0.10
2014-08-11 17:50:00,0,46074,6,0.00,0,0,0,0,40377,50000,3020,46027,0,61,18,0,0.00,0.00,0.00,0.00
2014-08-11 18:00:00,0,47853,0,0.00,0,0,0,0,42992,50000,2462,48600,0,0,0,0,0.00,0.00,0.00,0.00
2014-08-11 18:10:00,0,49873,0,0.00,0,0,0,0,48728,50000,382,50000,0,0,0,0,0.00,0.00,0.00,0.00
2014-08-11 18:20:00,0,50000,0,0.00,0,0,0,0,50000,50000,0,50000,0,0,0,0,0.00,0.00,0.00,0.00
2014-08-11 18:30:00,0,45162,0,0.00,0,0,0,0,36207,50000,4912,47430,0,0,0,0,0.00,0.00,0.00,0.00
2014-08-11 18:40:00,0,40640,48,0.32,0,0,0,0,32154,47066,4380,41324,0,61,16,51,0.00,0.70,0.21,0.30
2014-08-11 18:50:00,0,49120,53,0.11,0,0,0,0,45595,50000,1495,49980,51,61,4,51,0.00,0.20,0.07,0.10
2014-08-11 19:00:00,0,44679,51,0.45,0,0,0,0,40002,47836,2545,45484,51,51,0,51,0.05,0.85,0.28,0.33
2014-08-11 19:10:00,0,36283,56,0.91,0,0,0,0,25127,41861,4674,37934,52,61,4,52,0.15,2.20,0.57,0.88
2014-08-11 19:20:00,0,40559,59,0.19,0,0,0,0,34867,46343,3562,39289,41,61,6,61,0.00,0.80,0.22,0.12
2014-08-11 19:30:00,0,46860,41,0.06,0,0,0,0,41518,50000,2958,47959,41,41,0,41,0.00,0.15,0.04,0.05
2014-08-11 19:40:00,0,40345,53,0.16,0,0,0,0,32659,48861,4351,40690,51,61,4,51,0.00,0.45,0.17,0.10
2014-08-11 19:50:00,0,41511,57,0.12,0,0,0,0,29604,49778,6513,43041,51,61,5,61,0.00,0.35,0.09,0.10
2014-08-11 20:00:00,0,34828,54,0.24,0,0,0,0,27584,43546,4313,35125,41,61,8,56,0.05,0.40,0.11,0.28
2014-08-11 20:10:00,0,27318,52,0.65,0,0,0,0,20826,42016,5558,26382,51,52,0,52,0.15,1.05,0.29,0.73
2014-08-11 20:20:00,0,40255,51,0.17,0,0,0,0,31692,46685,4658,40742,41,61,6,51,0.00,0.45,0.12,0.15
2014-08-11 20:30:00,0,29036,51,0.81,0,0,0,0,21852,36062,3960,28942,51,52,0,51,0.15,2.50,0.80,0.40
2014-08-11 20:40:00,0,31384,59,0.97,0,0,0,0,24145,44434,5860,30551,52,61,4,61,0.15,3.55,0.99,0.65
2014-08-11 20:50:00,0,32704,51,0.47,0,0,0,0,22191,41159,5165,32674,51,52,0,51,0.20,0.90,0.24,0.43
2014-08-11 21:00:00,0,28343,52,0.62,0,0,0,0,22230,38317,4706,29182,52,52,0,52,0.45,1.10,0.19,0.57
2014-08-11 21:10:00,0,37175,51,0.20,0,0,0,0,27722,44412,5633,38278,41,61,6,52,0.05,0.45,0.13,0.12
2014-08-11 21:20:00,0,39637,53,0.28,0,0,0,0,28255,50000,6903,40978,51,61,4,51,0.10,0.50,0.15,0.25
2014-08-11 21:30:00,0,47536,52,0.04,0,0,0,0,40776,50000,3072,49256,41,61,8,51,0.00,0.05,0.02,0.05
2014-08-11 21:40:00,0,48930,31,0.04,0,0,0,0,46029,50000,1391,49506,0,51,25,51,0.00,0.15,0.05,0.00
2014-08-11 21:50:00,0,46210,49,0.14,0,0,0,0,38943,50000,3729,48356,0,61,17,51,0.00,0.25,0.08,0.17
2014-08-11 22:00:00,0,49596,26,0.04,0,0,0,0,47935,50000,778,50000,0,51,26,26,0.00,0.25,0.08,0.00
2014-08-11 22:10:00,0,49589,0,0.00,0,0,0,0,46001,50000,1196,50000,0,0,0,0,0.00,0.00,0.00,0.00
2014-08-11 22:20:00,0,49439,0,0.00,0,0,0,0,46629,50000,1033,50000,0,0,0,0,0.00,0.00,0.00,0.00
2014-08-11 22:30:00,0,48515,0,0.00,0,0,0,0,45135,50000,1893,50000,0,0,0,0,0.00,0.00,0.00,0.00
2014-08-11 22:40:00,0,48557,0,0.00,0,0,0,0,42230,50000,2762,50000,0,0,0,0,0.00,0.00,0.00,0.00
2014-08-11 22:50:00,0,45590,24,0.86,0,0,0,0,26773,50000,7184,49264,0,61,30,0,0.00,4.15,1.32,0.00
2014-08-11 23:00:00,0,19811,61,7.81,0,0,0,0,13736,28265,5295,17988,61,62,0,61,1.05,17.00,4.44,6.70
2014-08-11 23:10:00,0,29090,48,0.53,0,0,0,0,18935,41189,6998,29403,0,61,24,61,0.00,3.10,0.93,0.10
2014-08-11 23:20:00,0,48206,0,0.00,0,0,0,0,42574,50000,2497,49950,0,0,0,0,0.00,0.00,0.00,0.00
2014-08-11 23:30:00,0,38587,0,0.00,0,0,0,0,26225,48049,8005,38208,0,0,0,0,0.00,0.00,0.00,0.00
2014-08-11 23:40:00,0,26614,38,0.45,0,0,0,0,18539,32062,3753,28192,0,61,25,52,0.00,0.95,0.38,0.53
2014-08-11 23:50:00,0,22769,55,2.72,0,0,0,0,17443,27260,3376,22529,51,62,5,52,0.10,11.40,3.39,1.07
